Tracking 19638 objects as of 21-May-2019
HD Live streaming from Space Station
objects crossing your sky now

GLOBALSTAR M019

Track GLOBALSTAR M019 now!
10-day predictions
GLOBALSTAR M019 is classified as:


NORAD ID: 25677
Int'l Code: 1999-019B
Perigee: 1,626.1 km
Apogee: 1,627.4 km
Inclination: 52.0 °
Period: 118.6 minutes
Semi major axis: 7997 km
RCS: 2.526 m2 (large)
Launch date: April 15, 1999
Source: Globalstar (GLOB)
Launch site: TYURATAM MISSILE AND SPACE COMPLEX (TTMTR)
aabbcc
Your satellite tracking list
Your tracking list is empty




NASA's NSSDC Master Catalog

Two Line Element Set (TLE):
1 25677U 99019B   19139.89478080 -.00000218  00000-0 -13352-2 0  9991
2 25677  51.9855 127.2331 0000815 140.2232 250.0424 12.13810039915694
Source of the keplerian elements: AFSPC